Theta_e
363 364 363 361 362 363 363 363 363 361 360 358 359 360 359 358 359 357 356 356 356 356 358 357 357 358 357 354 353 354 356 356 356 358 358 359 359 358 356 357 360 361 361 358 356 355 356 358 358 358 357 357 357 355 354 355 356 357 358 358 358 358 358 358 358 359 358 356 355 354 352 351 351 350 351 352 352 353 353 353 353 353 352 352 351
364 364 363 361 363 363 363 364 363 361 360 359 359 360 360 359 359 358 357 357 357 357 358 358 357 358 358 356 354 354 355 356 356 356 357 359 360 359 357 357 359 361 361 360 360 358 358 358 359 359 358 358 358 357 355 354 355 356 358 358 359 358 358 359 359 359 359 358 357 357 355 355 355 354 355 355 355 355 356 355 355 355 355 355 355
363 364 363 362 362 363 363 363 362 361 360 359 359 359 359 360 360 360 357 357 357 358 358 358 358 359 359 356 355 355 356 357 357 356 356 358 360 358 357 356 358 361 361 361 361 360 359 359 359 359 357 357 358 358 356 355 354 355 355 356 357 358 358 359 359 360 360 360 358 356 355 355 356 355 356 356 356 357 358 358 357 357 356 356 355
362 364 363 362 362 362 363 362 362 361 359 358 358 357 359 360 360 361 359 356 356 358 359 359 359 361 361 359 358 356 357 358 359 358 357 357 359 359 357 357 357 359 360 359 360 360 360 359 359 357 357 356 358 358 358 357 356 356 355 356 356 358 358 359 359 360 361 361 360 359 359 358 358 358 357 358 358 358 359 360 360 360 359 358 357
360 363 362 361 361 362 361 361 361 361 358 357 358 357 357 357 358 360 360 357 355 357 360 360 360 362 362 361 360 360 359 360 360 359 357 357 359 359 359 358 358 360 360 360 359 360 360 359 359 358 357 357 358 359 358 358 358 358 358 358 358 359 359 360 360 361 361 362 362 361 361 361 361 361 361 361 361 360 360 360 360 360 359 359 359
360 363 363 360 360 361 360 359 360 361 359 357 356 357 357 355 356 359 360 358 356 355 360 361 361 362 364 362 362 362 361 361 361 360 357 357 358 359 359 358 359 360 360 360 360 360 360 359 359 359 358 357 358 358 358 359 360 359 360 361 361 361 361 362 362 362 361 361 361 361 361 361 361 361 361 360 361 360 360 359 358 359 359 359 359
359 361 362 360 360 360 360 359 359 359 359 357 356 356 356 354 355 357 359 359 356 354 357 361 362 362 365 364 363 363 363 363 363 363 359 357 357 359 358 358 359 360 360 360 360 359 359 360 359 358 358 358 358 358 358 359 360 360 362 363 363 363 363 362 362 361 361 360 361 360 361 360 360 360 360 359 358 358 357 357 358 359 359 360 361
359 361 362 360 361 361 359 360 359 359 360 358 357 356 357 355 353 355 357 359 358 355 355 360 362 362 363 365 363 363 365 364 364 364 363 359 357 358 360 358 357 358 358 358 358 357 356 356 357 357 358 358 359 360 360 359 360 361 362 362 363 364 363 362 362 361 361 361 361 360 361 360 360 360 359 357 357 357 357 358 359 360 360 360 362
358 361 362 362 362 362 361 360 360 360 360 359 358 357 357 357 355 355 357 359 358 356 353 356 360 361 362 364 364 363 364 364 363 364 365 363 359 358 360 360 358 357 357 357 358 356 356 353 353 353 355 357 359 360 360 359 360 361 361 363 364 364 364 363 362 362 362 361 361 361 360 361 360 359 358 358 357 357 356 358 360 360 362 362 363
359 361 362 363 363 363 362 362 361 361 361 361 360 358 357 358 356 356 357 360 359 357 355 354 357 360 362 363 364 363 362 363 363 363 364 364 362 358 359 360 360 358 356 356 356 356 355 354 352 351 352 354 356 358 359 359 359 358 357 357 359 361 364 364 363 362 362 361 361 360 360 360 359 359 358 357 357 357 357 359 361 362 362 364 364
360 361 363 363 364 364 364 363 363 363 363 363 362 361 360 359 359 357 357 360 361 359 358 355 355 358 360 361 362 362 361 360 361 362 362 362 362 360 359 359 361 361 359 357 357 356 354 354 354 353 353 354 354 355 355 355 356 354 351 349 349 352 356 359 361 361 361 361 361 360 360 359 359 359 359 358 358 359 360 361 362 364 364 364 365
361 361 363 364 365 366 366 365 366 365 364 364 364 363 361 361 360 360 359 361 363 362 361 359 357 357 359 359 360 361 361 360 359 361 360 358 358 359 360 358 359 361 361 360 358 358 356 354 353 353 354 355 357 357 357 356 355 354 352 351 349 348 350 352 355 357 359 360 361 360 361 361 361 360 360 360 361 361 362 363 363 364 365 364 364
362 362 364 365 366 366 366 367 367 367 366 366 367 365 364 363 363 362 362 362 364 365 363 361 360 359 358 359 359 359 359 359 359 359 360 357 355 355 358 359 358 359 360 361 360 359 358 357 354 352 352 354 356 359 361 363 363 360 358 358 356 354 354 353 353 353 355 357 358 360 360 360 361 361 361 361 363 362 363 363 363 364 364 364 364
363 364 364 366 368 367 368 368 368 368 368 367 368 367 366 365 365 364 364 364 365 366 365 362 362 362 361 360 360 360 358 358 360 359 358 358 355 353 355 359 359 358 359 360 361 360 360 360 358 357 355 356 357 360 362 363 364 364 363 363 361 360 359 359 358 356 356 356 357 358 359 359 360 361 361 361 362 362 363 363 363 364 363 363 362
363 364 364 367 368 368 369 368 368 370 369 369 369 369 367 367 366 365 364 364 365 367 365 363 363 363 362 361 361 362 360 357 359 360 359 358 356 354 355 358 360 360 360 362 362 362 362 362 362 361 361 361 360 361 363 364 365 367 367 366 366 365 364 364 363 362 359 359 359 358 358 360 361 362 361 361 362 363 362 362 362 361 361 361 361
363 364 365 367 369 369 369 369 370 371 371 369 370 370 368 368 367 366 365 364 365 367 366 365 365 364 364 362 361 361 360 359 359 360 360 359 357 356 356 357 359 360 360 361 361 363 364 364 365 364 364 365 364 362 362 363 365 367 367 366 365 364 364 363 362 361 361 359 359 359 359 360 360 360 360 360 360 361 360 360 360 360 361 361 360
364 365 366 367 369 370 370 370 371 371 371 370 371 370 370 369 369 367 365 363 364 366 366 365 364 364 365 364 362 361 360 359 359 360 360 360 358 357 357 358 360 361 361 361 361 362 363 363 364 365 365 366 365 364 363 362 363 364 364 364 364 363 362 361 361 360 360 358 359 359 358 359 359 359 360 360 360 360 359 359 359 360 360 360 358
364 366 367 367 369 370 370 370 371 371 372 372 370 371 370 370 369 368 366 363 362 364 365 365 364 363 365 365 364 363 360 359 360 359 359 359 359 357 358 359 360 361 362 363 362 363 363 361 362 364 365 366 365 364 364 363 363 364 364 363 363 362 361 361 360 359 359 359 359 360 360 360 359 360 361 361 361 361 360 359 359 360 359 357 354
365 366 368 367 370 370 370 371 371 372 372 371 370 370 370 369 369 368 366 364 361 361 363 364 364 363 362 364 365 363 360 358 359 359 359 359 358 358 359 360 361 361 363 363 364 363 364 363 361 361 363 364 365 365 365 364 364 364 363 362 362 362 361 360 360 360 361 363 363 363 363 363 363 363 363 362 361 361 360 360 360 360 357 354 352
365 367 368 367 369 370 371 371 371 372 373 371 370 371 370 369 369 368 366 363 361 361 360 361 363 363 361 362 363 364 362 359 360 360 359 359 358 357 359 361 361 362 363 364 364 364 364 365 364 362 361 360 361 362 362 362 363 363 363 361 361 361 361 360 361 363 363 363 364 363 364 364 364 363 362 362 361 361 360 359 359 358 356 353 351
366 368 368 368 370 370 371 371 371 371 372 371 370 370 369 368 368 368 366 364 361 361 359 360 361 361 361 360 362 362 362 362 361 361 360 360 358 358 359 361 362 362 364 364 363 363 364 365 366 365 363 362 361 360 359 358 359 360 360 360 360 360 359 360 361 361 360 362 362 362 363 364 363 363 362 361 358 355 354 356 355 353 350 347 346
366 369 368 368 369 370 370 370 372 371 371 371 370 369 368 367 367 367 366 364 363 362 361 359 360 360 359 360 360 362 363 363 362 362 361 361 360 358 359 361 362 363 363 364 364 363 363 364 365 365 366 365 363 361 359 358 357 357 356 356 356 356 355 356 356 357 359 360 361 362 363 362 363 363 361 357 353 351 350 349 346 343 343 343 344
366 369 369 368 369 370 370 371 370 371 371 371 370 369 368 367 367 368 367 365 364 364 363 363 362 360 360 361 361 362 363 363 363 362 362 362 361 360 359 359 360 362 363 364 365 365 364 364 364 365 364 364 363 361 360 358 358 356 356 355 354 353 353 353 354 356 358 360 361 362 362 362 362 361 358 354 352 349 343 339 339 341 343 343 344
367 369 369 368 369 370 369 370 370 370 370 370 370 369 368 367 367 367 367 366 366 366 366 365 364 363 361 362 361 362 364 364 364 363 362 363 362 361 360 359 359 360 362 363 364 364 364 364 363 364 363 363 363 361 360 359 357 356 356 355 354 354 354 354 356 358 359 360 361 361 360 361 360 358 355 353 347 340 337 339 342 344 343 343 344
367 369 368 367 368 369 370 370 370 369 370 370 369 368 368 367 367 368 368 367 366 367 366 366 366 365 363 363 362 362 364 365 365 365 364 362 362 362 361 360 359 358 359 361 362 362 361 361 362 363 363 362 362 360 360 359 357 356 355 355 355 355 356 357 359 360 361 361 361 360 360 360 357 353 350 346 340 338 343 345 344 342 342 342 342
368 369 369 368 368 369 369 369 369 368 369 370 369 369 368 367 368 367 368 368 367 367 367 366 366 366 365 364 365 364 364 365 366 366 366 364 362 362 361 360 360 358 357 358 360 361 360 359 360 361 361 361 361 360 360 359 358 357 355 355 356 357 358 359 360 360 360 360 360 361 359 356 350 346 344 343 343 345 346 343 340 340 340 340 339
370 370 369 367 369 369 369 369 369 369 369 369 369 368 368 367 367 367 368 367 367 367 366 366 365 365 365 365 366 365 365 366 367 367 366 365 363 362 361 361 359 358 357 356 357 358 358 358 358 357 358 358 358 359 359 358 357 356 355 355 356 358 359 359 359 359 360 359 359 356 352 347 345 344 343 344 344 344 341 338 338 340 339 338 339
370 370 370 368 369 370 370 369 370 369 369 368 368 368 367 367 367 368 367 366 366 366 365 365 365 365 364 365 366 367 367 367 368 369 368 366 364 363 361 361 359 358 357 356 355 356 357 356 356 355 355 356 356 357 358 357 356 357 357 356 358 358 358 358 358 358 356 355 352 349 346 345 344 343 341 341 341 339 339 338 339 339 338 338 339
372 371 370 369 368 369 369 369 369 368 369 367 367 368 367 366 367 368 366 365 365 365 366 366 366 365 365 366 366 367 368 368 368 368 368 367 365 363 363 362 360 358 358 356 355 356 357 356 356 356 356 357 358 358 359 359 360 360 359 360 359 358 357 355 354 354 352 349 347 346 345 344 343 341 339 338 338 338 338 338 338 338 338 338 338
372 371 370 369 369 368 367 368 368 368 368 366 363 362 362 363 364 367 367 366 366 365 365 366 366 366 366 367 367 367 368 368 368 368 369 368 366 365 365 364 362 359 359 356 355 356 357 357 357 357 358 358 359 360 360 360 361 360 359 358 358 356 354 351 350 349 348 345 345 344 343 341 340 339 337 336 336 336 337 337 337 337 337 336 336
370 370 369 368 368 368 368 367 368 369 369 368 364 360 359 360 361 363 365 365 365 365 365 365 366 366 366 367 367 366 366 368 368 368 368 368 368 366 365 364 362 360 359 356 354 356 358 359 359 359 360 359 360 360 360 361 360 359 357 354 353 351 348 346 346 345 343 342 342 341 340 338 338 337 335 334 334 336 337 337 336 335 335 334 334
368 368 368 367 368 368 368 367 369 368 368 369 367 365 363 362 360 359 362 364 365 366 365 365 366 367 368 368 366 366 366 367 367 367 367 367 367 366 365 364 363 360 358 355 355 357 360 360 360 360 360 360 360 360 361 359 357 355 354 350 346 343 343 343 344 343 342 342 341 338 338 337 336 335 334 334 335 336 336 336 335 334 334 333 333
365 365 366 367 368 368 367 367 369 369 369 371 370 369 368 366 363 359 357 359 362 363 363 365 365 366 367 367 366 365 366 365 365 366 366 365 366 365 364 363 363 361 357 355 355 359 361 361 361 362 361 361 360 360 359 357 355 353 350 347 343 343 343 343 341 340 340 339 338 337 336 336 335 334 334 335 335 335 335 335 335 333 333 333 333
367 368 368 369 370 371 370 369 371 370 370 371 372 370 370 369 367 364 358 357 359 360 361 361 363 364 365 366 365 365 365 364 364 364 363 363 364 364 363 362 360 358 356 354 356 360 362 361 361 361 360 359 356 355 353 352 351 349 347 345 344 344 342 340 339 339 338 336 335 337 337 335 335 335 335 335 334 334 334 334 334 332 332 331 331
370 370 370 369 370 371 371 370 371 370 371 371 371 371 370 368 368 366 362 362 364 363 358 355 357 360 362 363 363 364 363 363 363 362 361 361 360 361 360 358 356 354 354 355 358 360 360 359 357 355 355 353 351 349 348 346 345 344 344 344 344 342 340 339 339 339 338 337 337 337 335 334 335 335 334 334 334 333 333 334 333 332 331 330 330
365 367 368 368 368 367 368 369 369 368 369 369 369 367 368 367 367 366 363 364 365 360 352 349 352 356 357 359 361 361 361 361 361 360 359 358 358 358 358 356 355 354 354 354 355 354 355 355 352 349 348 347 345 346 345 343 342 342 341 342 341 340 339 339 339 337 336 337 337 335 333 335 336 335 333 334 334 333 333 332 332 331 330 328 328
356 359 362 365 366 366 366 367 367 366 366 366 365 365 364 363 362 362 360 360 359 352 345 343 346 348 351 354 356 357 357 358 358 357 355 354 354 355 355 354 353 353 351 350 348 347 347 348 347 344 343 341 342 342 342 340 340 340 340 340 340 340 339 338 337 336 337 337 337 335 334 335 335 334 333 332 332 332 332 331 331 331 330 328 328
349 351 354 357 360 363 364 365 365 364 363 363 363 362 359 357 357 357 356 354 351 347 344 342 342 342 344 346 348 351 352 351 350 349 349 350 350 350 349 347 346 345 345 344 343 343 343 342 342 342 342 340 340 340 339 338 338 338 338 338 338 337 336 335 334 334 335 336 336 335 333 333 333 333 332 331 331 331 331 331 331 330 330 330 329
345 346 347 348 350 353 356 358 359 359 361 362 361 358 356 355 354 352 350 348 346 344 343 341 339 338 338 338 341 344 345 343 343 345 346 347 347 346 344 342 341 339 339 338 338 338 337 336 336 337 337 337 338 337 337 336 337 337 337 337 336 333 334 334 335 335 334 335 334 333 332 332 332 332 331 331 330 330 330 330 330 330 330 330 329
343 342 342 343 344 345 347 348 349 350 354 356 355 353 352 352 351 349 347 346 345 344 342 339 338 337 336 336 339 342 343 343 344 344 344 343 341 339 338 337 336 335 334 332 332 332 332 332 331 332 331 332 332 333 333 333 334 334 334 335 335 334 335 335 336 335 334 334 334 332 332 331 331 331 331 331 331 330 329 328 329 329 329 329 328
344 342 341 341 341 341 342 342 343 343 345 346 347 348 348 348 348 347 346 344 342 340 338 337 336 336 336 337 339 341 341 341 340 338 337 336 335 334 334 333 331 330 329 328 327 328 328 328 328 327 327 327 327 328 329 329 330 331 331 332 333 334 334 333 334 333 333 332 332 332 332 332 331 331 331 330 329 329 328 327 328 328 328 327 328
344 342 341 341 341 341 340 340 339 338 338 339 340 341 341 341 341 341 339 337 335 334 333 333 333 334 335 336 336 335 334 332 330 328 328 328 327 327 327 326 326 326 325 324 325 324 324 323 323 323 323 324 324 325 325 326 327 327 328 329 330 330 331 331 331 330 330 330 331 331 331 331 330 330 330 330 329 328 328 328 328 328 327 327 327
342 341 340 340 339 339 338 337 337 335 334 334 334 335 335 334 333 333 332 330 329 329 329 329 329 330 331 331 330 329 327 325 323 323 323 323 323 323 323 323 323 323 323 323 324 323 322 322 321 321 321 322 323 323 323 324 324 325 326 326 326 326 326 327 326 326 326 326 327 328 329 329 329 330 331 331 331 330 330 330 329 328 327 328 327
341 339 339 338 337 337 336 334 334 333 332 331 331 331 331 331 330 329 328 327 327 327 327 327 327 327 328 327 326 325 324 322 321 321 320 320 320 320 321 322 322 321 321 321 321 321 321 320 320 319 318 319 320 321 321 321 320 320 320 321 319 318 318 319 319 321 322 322 323 324 325 326 326 327 329 330 331 331 331 331 330 329 329 328 327
340 339 338 337 336 336 334 333 333 332 331 330 329 328 328 328 328 328 327 327 326 326 326 325 325 325 325 325 324 323 322 322 321 320 319 318 318 317 318 319 319 319 318 318 318 318 318 317 316 316 315 315 316 316 316 315 314 313 313 314 313 312 313 315 317 318 320 320 321 322 324 324 325 325 326 326 328 329 330 331 331 331 331 331 330
340 339 338 336 335 335 333 332 332 332 331 330 329 327 326 326 326 325 325 325 325 324 323 322 322 322 322 322 322 321 320 319 318 318 318 317 317 318 318 318 317 317 317 316 316 316 315 315 315 314 313 313 312 311 310 310 309 308 308 309 310 311 312 314 316 317 317 317 318 320 322 323 324 324 324 324 326 327 328 329 329 330 331 331 331
339 339 338 336 334 333 331 330 329 329 329 328 326 325 323 323 323 322 322 322 323 323 322 322 320 319 318 319 319 318 317 316 315 315 315 314 314 315 315 315 315 314 314 313 313 313 312 312 311 310 310 309 308 307 306 305 304 302 302 302 305 306 308 311 313 314 315 314 316 318 320 321 322 323 324 324 325 326 326 326 327 328 328 329 329
336 337 337 337 335 332 330 328 327 327 326 324 323 322 321 321 321 320 319 319 319 320 321 320 319 317 315 315 315 315 314 313 312 311 311 310 310 310 310 310 311 311 310 310 310 309 309 309 308 307 306 305 304 303 301 300 299 298 297 297 298 299 301 303 307 310 312 313 315 316 318 320 321 322 323 323 323 324 324 324 325 325 326 326 326
331 332 333 334 333 331 328 327 326 325 324 322 320 320 319 319 318 318 317 317 317 317 317 317 317 315 313 312 312 312 311 311 310 309 307 307 307 307 306 307 307 307 307 307 307 307 306 306 305 304 303 302 300 299 297 296 295 295 295 295 295 295 296 297 299 303 307 311 314 315 318 320 320 321 321 321 322 322 323 323 323 323 324 324 324
326 326 326 326 325 324 323 322 321 321 321 320 320 319 318 317 316 316 316 316 316 315 314 313 313 311 311 310 310 309 309 308 307 306 305 305 305 305 305 304 304 305 305 305 305 305 304 304 303 303 302 301 299 298 296 294 294 294 294 294 294 294 295 295 297 301 307 311 313 314 316 318 319 319 319 320 320 320 320 320 321 321 322 323 323
320 319 319 318 317 317 317 316 316 315 315 315 316 316 316 315 315 314 313 312 311 311 310 309 308 308 307 307 306 306 306 305 305 304 304 304 303 303 303 303 303 303 303 303 303 303 303 303 303 302 302 301 300 299 296 294 293 293 293 293 293 294 294 295 297 302 306 309 310 311 312 314 315 316 317 317 317 316 316 317 318 319 320 321 322
Wind_Speed
34 33 33 32 31 31 31 30 29 28 27 27 26 25 25 25 24 23 23 22 22 22 22 22 22 22 22 21 20 20 19 19 18 18 17 17 16 15 14 14 14 13 12 12 12 11 11 11 12 11 11 11 10 10 10 10 10 10 10 10 11 11 11 11 11 12 13 12 13 14 14 14 15 15 15 16 16 17 18 20 21 21 22 22 23
35 33 33 33 32 33 32 31 30 29 28 28 27 26 25 25 24 23 23 23 22 23 23 22 22 22 22 22 21 21 20 20 19 18 18 18 17 16 15 15 15 14 14 14 13 12 12 12 12 12 12 12 12 12 11 11 11 11 11 11 12 12 12 13 13 13 14 13 13 14 14 14 16 16 15 17 17 17 18 19 19 20 21 22 22
35 33 33 33 33 32 32 31 30 30 30 29 28 27 26 25 25 24 24 23 23 23 24 23 22 22 22 22 22 22 21 21 20 20 19 19 18 18 17 16 16 16 16 15 15 14 13 13 13 13 13 13 13 13 12 12 12 12 12 11 12 13 13 13 14 14 15 14 14 14 15 14 15 15 15 16 17 18 19 19 19 19 20 21 22
34 33 33 33 33 33 32 31 31 31 31 30 30 29 28 26 26 25 25 24 24 24 24 23 23 23 23 22 23 23 22 21 21 20 20 20 19 19 18 17 17 17 17 16 16 15 15 14 14 14 13 13 13 13 12 12 12 12 13 13 13 14 13 14 15 15 15 16 15 14 14 15 15 15 15 16 16 17 18 19 19 20 20 20 21
34 34 33 34 34 33 33 32 32 32 32 31 31 30 29 28 27 26 26 26 25 24 24 24 24 24 23 23 23 23 23 23 22 21 21 20 20 19 19 18 18 18 18 17 16 16 16 16 15 14 14 14 14 14 13 13 13 13 13 13 13 13 14 14 14 15 16 17 17 15 15 15 16 15 15 15 16 16 17 18 19 20 21 20 20
34 34 33 33 34 34 34 33 33 33 33 32 31 31 30 29 28 27 26 26 26 25 24 24 24 24 24 23 23 24 23 23 23 22 21 21 20 20 19 19 19 18 18 18 17 17 17 17 16 15 15 15 15 14 14 14 14 14 14 13 13 13 13 14 14 15 17 18 18 17 16 15 15 16 15 15 16 16 17 18 18 19 20 20 19
34 34 33 33 34 35 35 35 34 34 33 33 31 31 30 30 29 28 27 26 27 26 26 25 24 24 24 24 23 24 23 23 23 22 22 21 21 20 20 20 20 19 19 18 18 18 18 17 17 17 17 17 16 16 15 14 14 14 14 13 13 13 14 14 14 15 16 17 18 17 17 15 15 15 15 15 17 17 18 18 18 18 19 19 19
35 34 33 33 33 35 35 35 34 33 33 33 31 30 30 30 29 28 27 27 27 27 27 26 25 24 25 24 24 23 23 23 23 23 22 22 21 21 21 20 20 19 19 19 18 18 18 18 18 18 18 18 18 17 15 14 13 13 13 13 13 13 14 14 14 14 15 16 16 16 16 16 15 15 16 16 17 17 17 18 18 19 19 20 20
35 34 33 33 34 34 34 33 33 33 32 32 32 31 30 30 29 28 27 27 27 27 27 26 25 25 25 25 24 24 24 24 24 24 23 23 22 22 21 21 21 20 19 19 19 19 19 19 18 18 18 18 19 19 18 16 14 13 12 11 11 12 13 14 14 14 14 15 16 16 16 16 15 16 16 15 16 17 17 18 19 20 21 22 21
34 34 34 34 33 33 33 32 32 33 33 33 33 31 29 29 29 29 28 27 26 27 27 27 26 26 25 25 25 24 24 24 25 26 26 24 23 22 21 21 21 21 20 19 19 19 19 19 19 18 18 19 19 21 21 21 20 18 16 14 13 13 13 13 14 14 15 15 16 15 15 15 14 14 15 16 18 19 19 19 20 21 22 22 21
34 34 34 33 32 32 32 32 32 33 34 33 33 32 30 29 29 29 28 27 26 26 26 27 27 26 26 26 26 25 25 25 26 29 29 28 25 22 21 21 21 21 21 20 19 19 19 19 19 18 19 20 21 23 25 26 26 25 25 23 21 19 18 17 15 15 15 16 16 16 15 16 15 14 16 17 18 19 20 20 20 21 20 19 20
33 33 33 32 32 32 33 32 32 32 33 32 33 32 31 29 29 29 28 27 27 26 26 27 27 26 25 26 26 26 25 25 27 30 32 32 29 25 21 21 21 20 20 20 20 19 20 20 19 18 18 19 20 21 23 25 25 25 25 23 22 22 22 22 21 19 17 16 16 16 16 16 16 15 16 17 18 20 21 21 20 20 21 20 20
32 32 31 32 32 33 33 32 32 32 32 32 31 32 31 29 29 29 29 27 27 26 26 26 26 26 25 25 26 26 25 25 28 30 32 34 34 30 24 20 21 21 20 20 20 20 19 19 19 18 18 18 19 18 19 19 19 20 20 20 20 20 20 21 22 23 22 20 19 18 17 17 17 17 16 17 19 20 21 21 21 21 22 22 22
31 31 31 31 32 33 33 33 32 32 32 31 30 31 31 30 29 29 28 27 27 26 26 25 25 26 25 24 24 24 24 25 28 30 32 33 34 34 29 22 19 20 19 19 19 19 19 19 18 18 17 17 17 17 17 17 16 16 17 17 19 19 18 17 17 19 21 22 22 21 20 20 19 19 18 17 18 20 21 22 23 23 24 24 25
30 31 31 31 32 32 33 33 32 31 31 30 30 30 31 30 29 28 28 28 27 26 26 25 25 26 26 25 24 23 24 25 27 29 32 32 32 34 33 26 19 18 19 18 18 18 18 18 18 18 17 17 18 17 16 15 15 14 15 15 16 15 15 15 16 16 18 20 21 22 21 21 20 18 17 17 18 20 21 23 24 25 26 26 25
29 31 31 31 32 32 32 32 31 31 31 31 30 30 30 30 29 28 27 26 26 25 25 25 25 25 26 26 25 24 23 24 25 27 29 31 30 32 32 27 21 20 19 19 20 19 19 19 18 18 18 18 18 19 19 17 15 14 14 14 14 14 14 15 16 17 19 20 20 21 21 20 19 18 18 20 22 22 22 23 24 24 24 23 22
30 32 32 32 32 33 32 32 31 31 31 31 31 30 29 29 28 27 26 26 26 25 25 25 25 25 25 26 26 25 24 25 26 26 27 29 29 31 31 26 22 22 21 20 21 21 21 21 20 19 19 19 19 20 21 20 18 16 15 15 15 15 15 14 15 17 19 20 21 23 24 22 21 21 21 23 23 22 22 23 23 22 21 20 20
31 32 33 33 32 33 33 32 32 31 32 32 31 30 29 28 28 27 26 26 26 25 24 24 25 25 26 26 26 26 25 27 28 28 28 29 29 30 29 24 21 21 20 20 20 21 22 24 24 22 20 18 18 19 20 21 19 17 16 15 15 15 14 13 14 16 17 17 16 18 20 21 20 20 20 21 20 19 21 24 23 21 20 19 19
33 33 34 33 32 32 32 32 32 31 32 31 31 30 29 28 27 27 26 26 25 25 24 24 24 25 25 26 27 27 26 27 29 30 31 31 31 31 28 22 20 20 19 19 20 20 21 23 25 27 25 21 19 18 18 19 18 16 16 15 16 15 14 13 13 13 12 12 11 11 13 15 16 17 18 18 18 18 19 21 21 18 17 18 19
33 32 32 31 31 31 31 31 32 31 31 31 30 29 28 27 26 26 26 25 25 25 25 24 24 24 24 25 27 28 27 27 28 31 32 32 33 33 28 23 21 20 19 19 18 19 20 21 22 26 28 27 25 23 22 22 21 18 16 16 16 15 13 12 12 11 10 10 12 13 13 13 14 16 18 17 17 17 16 15 15 14 14 17 18
31 30 30 30 31 30 30 31 31 30 29 29 28 28 27 26 26 26 25 24 24 24 25 25 24 24 24 24 25 26 27 27 27 29 32 33 34 34 30 24 21 20 19 19 18 18 18 19 19 21 23 24 24 24 25 26 26 24 21 19 19 17 16 15 14 12 11 11 13 14 14 14 14 15 15 14 14 14 12 10 10 11 13 15 16
30 30 30 30 30 30 29 29 29 28 27 28 27 27 27 26 25 25 24 23 24 24 24 24 23 23 23 23 23 24 25 27 27 27 30 31 33 34 32 27 23 21 19 18 18 18 18 17 17 18 19 19 18 18 19 21 24 25 24 22 21 20 20 19 16 14 13 12 13 13 13 13 12 13 13 14 13 10 7 7 10 12 13 14 13
29 29 29 30 29 29 29 28 28 26 26 27 27 26 26 25 25 25 24 23 23 23 22 22 21 21 21 21 22 22 22 25 27 28 28 29 31 33 34 30 27 24 20 19 18 17 17 17 17 17 18 17 15 15 15 16 18 19 18 17 17 17 17 16 14 12 11 12 12 12 12 11 12 12 12 11 9 8 8 10 11 12 12 13 12
28 27 28 28 27 27 27 27 27 26 25 27 26 25 25 25 23 24 23 22 21 21 21 21 20 20 20 20 21 21 20 22 25 28 29 29 30 31 32 32 31 28 23 19 17 17 17 18 18 18 17 16 15 15 14 14 15 14 12 12 13 13 13 13 11 10 11 12 12 11 11 12 12 11 8 6 7 10 11 10 10 10 12 13 13
26 26 26 27 26 26 26 26 26 25 24 26 25 24 25 24 23 23 23 22 21 21 21 21 20 19 19 19 19 20 20 20 23 26 29 29 29 30 31 32 33 32 27 20 18 18 17 15 15 15 15 15 14 14 14 14 13 12 11 11 11 11 10 11 10 11 12 11 11 11 13 13 9 5 4 7 9 9 8 7 8 10 11 12 12
24 24 24 25 25 25 25 24 24 24 23 24 24 23 24 24 23 23 22 22 21 21 21 21 20 19 19 19 19 19 19 20 21 23 26 29 29 30 30 30 31 32 31 27 22 20 17 14 12 11 11 13 12 11 12 12 10 10 9 10 10 11 11 11 11 12 12 11 12 13 12 9 4 2 4 7 6 5 5 7 9 9 9 9 11
23 22 23 23 23 24 23 23 23 23 23 23 22 22 23 23 22 22 22 22 21 21 21 21 21 20 20 19 19 19 19 20 20 21 24 29 31 30 31 31 31 32 34 33 29 24 19 17 16 13 12 12 11 10 11 12 11 10 10 10 11 12 13 13 12 11 11 10 10 9 6 4 2 3 4 4 2 3 5 7 8 8 8 9 11
22 22 22 22 22 22 22 22 22 22 22 22 21 21 22 23 23 23 23 22 22 22 22 21 21 21 20 19 19 19 19 21 21 20 22 26 30 31 31 31 33 33 35 35 33 27 21 18 18 16 13 12 12 12 13 14 14 12 12 11 11 11 12 13 13 12 11 9 7 5 4 3 4 3 2 2 2 3 5 5 7 8 8 9 9
22 22 22 22 22 21 21 22 22 21 21 21 19 19 20 21 22 22 22 23 23 22 22 22 21 21 20 20 20 20 20 21 22 22 22 23 26 29 29 31 33 34 33 33 31 26 22 19 18 16 14 14 14 14 15 16 16 14 13 12 11 10 9 11 12 11 9 7 6 5 4 4 3 2 2 2 2 3 4 5 6 7 8 8 8
21 22 21 20 21 21 21 21 21 21 21 20 18 17 17 17 18 19 21 25 25 24 22 21 21 21 20 19 21 21 20 20 21 21 21 21 21 23 24 25 28 31 32 31 27 22 22 22 19 17 17 17 17 17 17 16 14 12 11 11 11 10 9 9 10 10 8 7 6 5 4 3 2 2 2 2 3 3 4 4 5 6 7 8 8
20 20 19 18 20 20 20 20 20 21 20 19 18 18 16 15 15 15 17 22 24 24 24 22 21 22 21 19 20 19 18 18 19 18 19 19 20 21 20 17 19 23 28 30 27 22 21 23 21 19 19 19 19 19 17 13 11 11 10 10 11 10 9 8 10 9 8 8 7 5 3 3 2 2 2 2 3 4 4 4 5 6 6 7 7
19 17 16 17 19 20 19 19 20 20 20 18 19 19 16 14 12 11 13 17 20 22 22 20 19 20 19 18 19 18 17 17 17 16 17 18 20 22 20 16 15 16 22 27 26 21 20 22 21 20 21 21 19 18 15 12 11 12 12 12 12 12 10 10 11 9 7 7 6 4 4 3 2 2 2 3 3 3 3 4 4 5 6 6 6
17 17 16 16 17 18 18 18 19 19 19 18 18 18 17 15 13 10 10 13 15 18 20 19 18 17 16 15 17 17 17 17 16 14 15 17 19 20 19 16 14 15 19 24 22 18 19 21 19 18 19 17 14 12 11 11 12 13 13 13 13 12 11 12 12 9 6 6 6 4 4 4 3 3 3 3 3 3 3 4 4 4 6 6 6
11 12 14 15 16 16 15 15 16 17 17 17 17 18 18 18 16 14 12 11 11 13 15 17 17 17 15 14 14 15 15 15 14 13 14 15 17 17 17 17 16 16 19 21 18 16 17 15 13 12 13 12 10 8 7 8 9 10 11 10 9 9 9 10 10 8 6 6 6 4 3 3 2 2 3 3 3 3 4 4 3 3 5 6 6
12 12 11 13 15 15 13 12 14 15 15 16 17 16 16 16 15 15 14 13 13 11 10 11 14 16 16 15 14 13 14 13 13 14 14 16 17 17 17 17 17 17 18 18 15 13 12 10 10 10 11 11 11 10 9 8 9 9 8 7 7 8 7 7 7 6 6 5 5 3 2 2 2 2 3 3 3 4 4 4 3 3 3 6 7
11 11 10 11 12 13 12 10 10 11 12 14 14 15 15 15 15 14 14 15 15 11 9 10 12 12 13 14 13 13 13 13 13 13 14 16 17 17 17 17 15 16 17 15 11 9 9 11 12 12 12 12 13 13 12 11 10 10 9 8 8 7 7 7 6 6 5 4 4 4 2 1 2 2 4 4 4 4 4 4 4 4 3 5 7
18 15 12 8 7 8 9 9 8 7 8 10 11 11 9 8 10 12 12 11 9 10 10 10 11 11 12 13 13 13 13 12 13 14 15 16 16 15 15 15 15 15 15 13 11 10 11 12 14 14 13 13 13 13 12 11 9 8 8 8 7 7 7 7 7 5 4 4 4 3 1 2 2 2 4 5 5 5 5 5 5 5 4 5 7
25 23 19 14 11 8 7 8 9 9 10 9 9 8 9 9 9 11 11 9 10 10 10 10 11 13 16 17 17 18 19 18 18 18 19 18 16 13 12 12 13 13 13 13 12 12 11 11 12 13 13 13 12 12 11 10 8 8 8 8 7 5 6 8 7 4 3 3 4 3 1 3 3 4 5 6 7 7 6 6 7 6 5 6 7
24 24 22 20 19 16 12 9 8 9 11 12 12 11 10 9 9 11 11 11 12 12 12 12 11 12 17 24 27 26 24 22 20 19 18 16 13 12 13 14 13 13 13 12 12 13 12 11 11 11 11 11 10 10 10 9 7 6 7 7 6 6 7 9 7 4 2 4 4 2 2 4 6 6 6 7 8 9 8 8 8 8 7 7 7
21 21 22 22 22 22 21 19 17 15 13 13 13 12 10 10 11 12 13 14 14 13 13 14 13 13 18 26 29 26 21 19 18 17 14 13 13 14 14 14 13 13 12 11 12 15 16 15 13 13 13 12 13 13 11 8 7 6 5 5 6 6 4 3 2 2 1 3 4 3 4 5 6 7 8 9 9 9 9 9 9 9 9 9 10
18 20 21 20 19 19 21 20 19 19 18 17 14 12 10 10 10 12 14 15 15 15 14 15 16 16 18 20 21 20 19 19 18 16 16 15 15 15 15 14 13 13 13 12 12 13 13 13 12 12 12 11 12 13 12 10 8 6 4 4 4 3 1 3 5 4 2 2 4 5 6 7 8 10 9 8 7 8 9 10 11 12 11 11 12
17 18 19 18 16 16 17 17 17 17 18 19 18 15 12 11 13 15 16 16 16 15 16 19 20 20 18 18 18 19 19 18 17 17 17 17 16 15 15 14 13 13 13 12 11 11 11 11 11 11 11 10 10 11 11 10 8 6 5 5 4 3 2 2 3 3 3 4 5 6 7 9 11 13 12 10 9 10 12 13 13 14 13 13 13
17 17 17 17 16 15 15 15 16 16 17 20 21 19 15 13 13 15 16 17 16 16 19 23 26 24 22 22 21 20 18 17 17 17 17 16 15 15 15 14 14 15 15 14 12 12 12 12 11 11 11 11 11 11 10 9 8 7 6 6 6 5 5 4 3 3 3 3 4 5 6 8 10 11 12 12 13 14 14 14 15 15 15 15 16
17 17 17 17 17 16 15 16 17 18 19 21 24 24 20 16 13 15 18 19 18 18 21 24 25 24 22 20 19 19 19 19 19 18 17 17 17 18 17 16 16 17 17 16 14 14 14 14 13 13 13 13 13 12 10 9 9 8 7 7 7 7 6 5 4 3 3 3 5 6 7 8 9 10 11 12 14 14 15 15 15 16 16 16 17
16 17 17 17 18 17 15 16 17 18 19 20 22 23 21 16 14 15 19 21 20 19 20 21 22 22 21 20 19 19 19 20 19 18 18 18 18 19 18 17 17 17 17 17 16 16 16 16 16 15 15 14 14 13 12 11 12 11 10 9 9 8 6 4 3 4 3 3 5 6 8 8 9 10 11 12 13 13 14 15 16 17 17 17 16
16 16 16 17 17 16 16 17 17 17 16 17 18 18 17 15 15 17 21 22 21 19 18 19 21 22 21 19 18 17 17 18 19 19 19 18 19 19 19 18 17 18 18 17 17 17 17 16 16 16 15 15 14 14 14 14 14 13 11 10 9 9 7 6 5 4 3 3 5 8 8 8 9 10 10 11 12 12 12 14 16 16 17 17 17
15 15 15 16 16 16 16 17 17 16 16 15 15 15 15 16 17 19 21 22 21 20 19 19 20 21 21 20 19 18 18 19 19 19 18 18 18 18 18 18 17 17 17 17 16 16 16 15 15 15 15 15 15 14 14 14 13 13 12 11 11 10 9 8 7 6 4 4 5 6 7 7 8 9 10 10 11 11 11 13 14 14 15 16 16
14 13 13 15 15 15 15 15 15 14 15 15 15 14 15 16 17 17 18 20 21 21 20 19 18 19 20 21 21 20 20 19 19 19 18 18 18 18 18 18 17 17 16 16 17 16 16 16 16 15 15 15 15 15 15 14 14 13 13 13 12 12 11 9 9 8 7 6 5 5 6 7 8 9 10 10 11 11 12 12 13 13 13 14 14
15 15 16 16 17 16 15 14 13 12 13 14 14 14 15 16 17 17 18 19 19 19 19 17 16 17 18 19 19 19 19 20 20 21 21 20 21 21 20 19 19 18 17 17 17 17 17 16 16 16 16 16 16 16 15 15 14 14 14 14 13 12 11 10 9 9 8 7 6 5 7 8 8 9 10 10 11 11 12 12 13 13 14 14 14
15 16 18 19 19 18 16 15 14 14 13 13 13 14 15 16 17 17 17 18 18 17 16 15 15 16 17 17 17 17 18 18 19 19 21 22 22 22 21 21 19 18 18 18 18 17 17 17 17 17 17 16 16 16 15 14 14 15 14 13 12 12 11 10 10 9 7 7 8 7 8 8 9 9 9 9 9 10 11 12 13 13 14 14 14
17 17 18 19 19 18 16 16 15 15 14 14 15 15 15 15 15 16 16 16 16 16 16 16 16 16 17 17 18 18 19 19 19 20 20 20 21 22 22 21 20 18 18 18 18 17 16 16 16 16 15 15 15 15 14 13 13 13 12 11 10 10 9 9 9 7 6 7 9 9 9 8 8 8 8 8 8 9 10 11 12 12 13 13 14
Wind_Direction
186 185 186 187 187 188 190 191 193 195 197 198 199 201 202 205 206 206 206 204 204 203 201 201 199 198 199 201 203 205 205 207 208 209 212 216 220 225 226 223 223 226 229 232 235 233 231 234 237 238 240 242 246 249 249 245 239 239 243 245 248 249 245 249 258 267 272 273 274 276 276 275 274 269 267 267 265 263 263 265 268 269 266 262 262
188 186 185 186 187 188 189 190 191 194 196 197 199 200 201 203 205 205 205 203 202 203 202 203 202 199 199 200 201 203 204 205 207 208 210 214 217 221 224 223 222 224 228 231 233 234 232 234 237 237 239 241 243 246 249 250 246 243 242 242 247 250 247 247 255 265 271 272 273 274 274 272 272 270 269 268 268 267 265 265 266 266 265 264 263
188 186 185 186 187 188 188 189 191 193 196 198 200 201 201 202 203 204 205 204 203 203 203 203 203 201 201 200 199 201 202 203 206 207 209 212 216 220 222 223 223 224 227 229 230 231 232 233 236 237 238 240 242 245 248 252 255 255 253 250 250 251 251 250 252 260 269 274 275 277 278 276 274 275 275 273 273 273 270 269 271 270 269 269 269
188 186 187 187 187 187 188 190 192 194 197 200 202 203 203 202 202 203 204 205 204 204 204 204 204 202 202 201 198 199 201 202 204 207 209 212 215 219 222 223 224 225 227 230 230 231 232 232 234 236 236 239 241 243 246 248 251 255 255 254 253 254 254 254 253 257 264 272 274 275 278 279 278 279 280 279 278 277 274 274 275 276 276 276 278
187 187 188 188 187 188 189 191 194 195 198 201 202 203 204 203 203 203 204 205 204 203 203 204 204 203 204 203 199 198 200 200 203 206 209 212 215 218 221 222 224 226 227 230 230 231 232 232 234 234 234 236 239 241 243 245 247 250 252 253 252 253 254 254 257 259 263 270 275 276 277 278 278 278 279 281 281 281 279 278 279 281 282 282 283
186 187 188 188 189 189 190 192 195 196 198 201 202 202 203 203 203 203 204 205 205 203 202 203 205 204 204 203 200 199 200 200 202 205 209 213 215 217 220 221 223 224 226 228 229 230 231 233 234 234 234 236 238 240 241 243 246 248 250 252 253 255 256 256 258 262 266 270 275 277 277 276 277 281 282 284 285 286 288 286 284 284 284 283 283
186 186 188 189 190 190 191 193 195 196 198 200 202 202 203 204 203 203 203 204 204 204 202 202 204 205 204 204 202 200 200 201 203 205 209 213 215 217 220 221 222 223 225 226 228 229 231 232 234 234 235 237 239 241 241 240 244 247 248 251 253 256 258 260 262 264 266 270 273 275 277 276 278 282 285 287 285 283 285 288 288 287 286 282 283
185 185 187 189 190 191 192 193 194 196 197 199 201 202 203 203 203 202 201 203 205 205 203 201 202 205 205 204 202 200 200 202 203 204 207 211 215 218 219 221 223 223 224 226 228 230 232 233 235 235 235 236 238 240 240 240 242 246 247 248 250 253 257 261 265 266 268 272 274 276 279 280 281 283 284 284 282 282 286 291 292 292 290 288 287
184 184 185 188 190 191 191 192 192 193 195 196 199 201 202 202 202 201 200 201 204 206 206 203 202 205 206 205 204 202 201 203 204 204 204 208 213 217 219 221 223 225 226 227 228 231 234 236 239 239 238 238 237 238 239 238 237 241 244 246 249 254 258 261 264 267 268 271 274 276 277 278 279 283 285 286 288 293 296 294 292 293 296 297 293
184 185 186 188 189 188 189 190 190 191 192 194 197 199 200 200 201 201 199 200 203 206 207 207 205 205 206 206 205 205 205 206 206 205 204 205 210 215 219 221 224 225 226 228 229 231 234 238 241 242 243 242 241 242 244 242 241 242 243 245 250 254 259 262 262 263 266 268 271 274 276 277 280 286 290 293 295 296 297 296 297 300 302 301 297
185 185 186 186 185 185 187 188 188 190 191 192 193 196 198 198 199 200 199 199 201 204 206 208 209 207 206 207 208 208 210 210 208 207 207 207 208 212 218 220 222 225 226 226 228 230 234 238 241 243 243 243 243 245 248 250 251 252 254 256 257 256 256 259 261 264 268 270 272 275 277 280 284 289 292 294 296 298 300 302 302 301 301 299 298
186 186 185 183 182 183 185 186 187 188 189 189 190 192 195 197 197 198 199 198 199 201 204 206 209 210 208 209 211 212 213 213 210 210 210 212 211 211 215 220 221 223 225 225 226 229 232 237 241 242 242 241 242 244 249 253 255 257 259 261 262 259 255 254 256 259 264 269 274 275 277 283 288 290 291 294 298 300 300 298 297 296 296 296 297
186 186 185 182 181 182 183 184 185 186 187 187 187 188 191 194 196 196 197 198 197 199 203 204 207 210 210 211 212 214 216 214 212 212 213 216 216 213 213 219 221 223 224 224 226 228 230 234 238 241 242 242 241 240 244 252 258 261 262 262 263 264 261 257 255 254 255 260 266 269 272 277 282 285 287 293 298 298 295 294 296 297 297 299 301
185 185 185 183 181 182 182 183 184 185 185 185 185 187 189 192 195 195 195 197 197 199 202 204 205 208 210 212 213 216 219 217 214 214 216 218 219 217 215 218 222 224 224 224 226 227 229 231 234 237 239 240 239 238 238 242 250 258 261 262 263 266 266 263 258 253 250 250 254 260 265 267 270 275 281 284 285 285 288 294 299 301 300 302 303
184 184 185 183 182 182 183 183 183 183 182 183 184 186 189 191 193 194 195 197 197 198 201 204 205 207 209 212 213 216 220 220 216 215 217 219 221 220 219 220 225 227 226 225 227 229 229 231 233 235 236 235 236 236 235 237 241 246 251 255 257 259 260 258 258 258 255 252 254 260 266 266 263 268 276 279 278 281 289 296 299 300 301 301 301
183 183 184 184 183 183 183 182 183 182 181 182 184 186 188 190 192 193 196 198 199 199 202 204 206 207 208 211 215 217 221 222 220 217 218 220 220 220 220 222 226 229 228 227 228 229 231 231 233 234 235 235 236 236 235 235 238 244 248 253 257 258 259 258 258 260 260 259 260 263 266 264 260 263 273 281 282 284 289 293 295 297 298 299 300
184 184 185 186 184 184 183 182 182 182 181 182 185 186 188 189 191 193 196 199 201 201 203 205 207 208 208 210 214 218 220 222 222 220 219 218 217 217 217 219 224 228 229 228 228 229 231 231 232 233 235 236 237 237 238 237 238 244 251 256 259 261 263 264 263 262 260 260 263 265 266 266 265 267 273 279 282 285 286 286 290 295 298 299 302
186 185 186 187 185 184 184 184 183 182 183 184 186 187 188 189 190 193 196 200 203 203 204 207 209 210 211 211 212 215 220 223 222 221 220 217 215 215 214 215 222 226 227 228 228 229 232 233 233 233 233 236 237 238 240 238 236 240 247 254 258 259 261 263 266 269 269 268 267 266 266 266 266 270 274 277 283 287 283 280 284 291 295 298 302
187 186 186 186 185 184 185 185 184 184 185 186 187 187 187 188 189 193 197 201 205 206 205 208 210 211 212 213 212 214 219 223 222 220 220 219 217 214 212 213 219 224 226 228 226 228 232 235 236 235 233 233 234 235 238 237 233 234 242 250 254 254 257 260 264 273 279 276 269 265 266 267 270 277 282 282 285 286 279 277 280 285 288 294 298
187 186 184 185 185 185 186 186 186 187 186 185 186 186 186 188 189 192 198 202 205 208 208 210 212 213 214 214 214 214 217 222 222 220 219 219 218 214 210 210 216 221 224 226 226 228 231 233 237 240 239 237 234 234 237 238 236 235 239 246 250 252 256 261 268 278 287 279 273 274 278 280 279 280 283 286 288 286 278 269 269 270 277 290 297
185 184 183 184 185 185 187 188 187 188 187 185 185 186 187 189 190 193 198 201 204 208 211 212 214 215 216 216 215 215 216 218 221 222 219 219 219 216 211 209 212 218 222 225 227 229 231 232 235 239 242 242 239 239 241 243 243 243 243 244 247 250 255 261 269 280 284 278 274 276 277 281 282 282 285 293 296 294 284 268 269 278 290 302 309
183 182 182 185 185 184 186 188 187 188 188 185 185 186 187 189 190 192 197 200 202 206 209 212 215 216 217 218 217 217 217 217 219 222 221 220 220 218 215 211 210 215 220 225 227 229 231 233 235 237 240 240 237 237 239 242 244 245 245 245 247 248 251 256 263 269 271 270 270 272 276 282 285 285 288 294 297 301 306 300 300 304 304 306 309
182 182 183 184 184 184 184 184 184 186 186 185 185 185 186 189 190 191 195 198 200 203 205 209 214 216 216 217 217 218 219 217 217 220 222 222 222 221 220 216 211 212 219 224 226 228 232 234 235 237 237 234 231 235 238 237 237 240 240 241 243 244 246 251 255 255 256 260 263 269 278 280 273 273 285 294 294 299 309 306 303 303 300 299 298
181 182 183 183 182 181 181 181 182 185 185 184 184 184 185 187 188 189 192 194 196 199 201 204 210 214 216 218 218 218 218 218 217 219 222 223 223 223 223 221 216 213 219 226 228 229 231 233 234 236 235 231 230 234 235 234 234 236 235 232 234 238 240 243 243 239 241 248 254 262 268 264 260 268 285 293 292 297 303 302 299 298 298 297 297
181 182 182 181 180 178 178 179 181 183 184 183 183 183 183 185 187 187 189 193 195 197 198 201 206 212 215 218 219 217 217 218 219 221 222 225 226 225 225 225 221 217 217 222 229 232 230 227 227 228 225 222 223 228 232 234 236 237 236 233 231 230 230 229 229 230 234 241 246 248 252 255 261 277 277 274 288 300 305 303 300 299 299 298 299
180 180 180 179 177 175 175 177 180 182 183 183 183 184 184 185 187 187 188 192 195 197 199 200 203 209 213 216 218 218 217 218 220 221 221 223 226 226 226 226 224 222 220 221 225 232 233 230 226 221 215 212 214 220 227 230 232 234 236 232 225 222 222 222 223 229 234 240 243 245 249 255 270 294 271 274 291 302 298 302 304 303 304 306 307
174 177 178 176 174 173 173 174 177 180 182 183 183 185 185 186 187 188 190 192 194 196 200 201 203 207 210 213 215 216 217 217 218 219 216 217 221 223 223 223 222 221 221 222 224 229 235 239 239 236 231 224 217 216 224 231 236 238 237 230 223 223 225 223 221 226 232 238 244 248 252 257 256 267 269 265 270 285 298 309 310 309 313 313 309
171 175 176 173 172 174 173 172 176 180 183 184 184 185 188 190 191 192 193 194 194 197 199 201 204 207 208 209 211 214 216 216 217 215 211 211 215 217 218 220 220 218 218 220 222 224 229 238 242 239 236 234 230 227 228 228 229 229 227 220 213 215 222 223 225 231 233 235 240 242 239 238 238 248 265 260 275 300 304 306 307 310 316 316 312
172 175 175 173 173 174 173 174 178 181 182 181 181 183 187 190 192 194 196 198 199 199 200 201 204 206 206 207 208 211 213 214 216 217 213 210 211 213 215 218 219 218 218 217 217 218 220 227 234 232 227 227 230 228 225 222 220 219 218 213 207 206 217 224 227 228 224 218 222 222 220 228 234 239 266 276 287 292 288 294 308 312 312 313 314
175 176 175 174 173 174 177 179 180 183 182 175 169 171 177 185 190 191 194 200 202 202 203 204 205 205 206 208 209 213 217 216 214 214 213 211 210 212 216 218 217 218 217 213 209 209 212 215 220 221 218 219 221 223 224 224 216 206 206 214 215 211 212 211 206 199 192 193 206 212 209 216 230 239 268 290 291 284 282 288 300 303 308 317 321
176 175 176 175 171 172 179 180 178 184 185 172 163 165 166 172 182 184 187 194 199 201 205 207 206 206 209 212 211 214 217 215 212 209 208 207 206 205 209 211 210 214 216 209 202 203 208 210 214 216 215 216 218 220 220 214 195 187 201 219 220 214 208 199 187 178 176 185 193 195 193 203 222 235 262 287 289 289 288 288 297 307 314 321 326
176 172 173 173 170 173 182 181 178 184 186 172 164 167 166 163 168 172 176 184 191 196 201 204 205 208 212 213 211 209 204 201 202 203 202 201 198 197 199 203 204 211 213 205 200 203 208 209 213 216 216 216 217 215 210 197 185 191 204 207 200 198 198 191 179 170 171 179 179 177 187 198 212 237 257 275 282 288 294 293 303 315 317 318 324
178 171 169 170 169 173 181 182 178 183 187 178 168 171 176 176 173 165 166 178 187 193 198 199 200 203 204 203 204 204 200 195 195 196 198 197 194 193 195 199 202 207 207 200 198 206 212 212 215 217 215 211 206 204 206 203 197 199 205 199 185 179 181 181 178 174 173 175 174 176 188 197 210 237 251 265 274 281 293 292 296 311 319 323 326
150 147 159 169 171 172 177 183 183 183 183 179 173 175 186 194 190 174 166 173 181 187 195 199 199 199 197 194 195 197 197 197 200 206 207 203 202 201 197 192 191 195 195 195 201 215 218 211 205 204 195 184 177 183 196 201 194 194 199 192 168 153 159 167 170 169 170 176 179 178 185 199 221 253 266 276 283 286 287 283 285 309 325 325 323
114 115 137 158 165 166 169 175 180 182 183 182 181 181 188 196 189 172 171 187 190 180 181 193 197 198 197 197 198 200 204 207 211 215 213 207 204 200 189 178 177 181 188 195 209 219 209 183 168 173 172 167 169 170 167 167 167 167 171 165 144 139 152 161 162 163 170 180 176 156 162 210 236 263 273 274 278 286 286 283 284 301 326 331 327
97 108 122 142 155 163 169 170 171 177 177 179 186 190 193 197 189 175 185 204 198 172 158 174 187 192 196 198 201 205 212 215 211 207 203 198 192 184 175 170 171 178 184 191 197 198 187 171 164 163 159 157 159 160 161 166 162 152 153 154 144 142 152 157 156 160 169 175 158 134 137 243 255 289 294 285 272 269 274 282 285 281 300 325 320
59 65 76 97 126 147 163 166 160 153 156 173 193 193 180 174 165 159 170 187 170 141 142 161 167 165 167 175 183 187 189 189 183 174 167 164 162 160 160 163 166 168 169 168 161 162 171 172 166 159 153 149 147 148 153 159 152 140 137 138 134 135 146 151 153 164 174 168 149 137 163 243 236 274 296 292 285 279 279 284 287 279 272 287 292
61 62 66 71 77 94 124 143 145 145 153 169 178 154 118 104 114 128 138 144 138 137 150 157 153 150 148 148 153 155 149 143 142 141 141 141 141 142 145 148 147 146 144 143 144 149 155 158 156 153 153 153 149 143 141 145 147 142 137 130 120 124 154 164 160 153 157 169 170 168 231 279 273 273 281 282 281 282 281 284 291 292 286 282 288
65 67 70 71 72 72 72 75 91 117 141 151 147 135 130 136 139 137 143 148 147 149 151 145 140 143 143 140 138 137 133 131 133 137 141 139 129 121 124 127 126 124 125 125 126 121 113 108 108 111 115 122 125 122 126 135 139 131 130 133 133 146 175 183 174 150 164 216 226 228 271 285 282 282 286 283 278 279 281 283 286 292 297 298 303
73 72 72 71 70 68 65 60 61 73 97 118 126 130 140 152 153 151 153 151 144 141 138 133 129 135 140 139 137 135 133 134 137 137 132 119 101 96 105 114 115 113 108 104 107 110 109 107 104 96 91 94 98 101 108 117 115 109 122 154 166 167 176 178 125 104 191 262 286 300 280 269 277 285 281 274 277 289 295 289 280 280 285 288 291
81 77 72 71 71 70 69 67 63 65 75 84 93 103 118 130 136 139 138 132 126 123 120 118 122 133 141 143 140 136 131 128 125 120 113 105 100 100 104 105 103 102 97 93 98 107 111 114 112 103 98 98 97 95 96 97 97 101 120 151 165 164 97 38 41 42 16 296 295 295 286 292 317 324 309 293 295 298 290 277 271 274 280 284 291
79 78 75 74 73 70 71 73 70 67 70 72 73 75 83 96 106 111 112 110 109 107 106 106 111 120 128 129 126 121 116 112 111 110 107 103 102 103 102 98 95 94 93 92 94 97 102 106 106 101 98 94 90 89 92 95 99 105 106 100 103 105 84 65 46 21 347 302 292 303 305 309 321 326 322 319 314 295 277 270 274 281 286 287 285
67 72 75 76 73 70 70 73 73 72 73 76 78 75 70 74 90 100 102 103 104 106 107 106 106 108 112 114 112 108 102 99 103 106 105 101 99 98 97 96 95 93 92 93 93 94 95 97 97 95 95 94 93 90 87 85 88 90 84 80 82 79 68 58 43 24 359 329 329 337 327 316 315 314 311 311 308 296 286 284 285 286 287 286 283
62 66 71 72 71 72 70 70 75 79 81 82 85 85 80 76 83 94 98 99 101 104 107 107 106 107 109 108 104 100 97 98 99 100 101 101 100 100 99 98 96 94 92 91 94 97 99 97 96 96 98 101 104 103 98 91 84 75 66 67 68 62 55 47 25 354 335 335 338 333 321 317 318 315 310 307 305 301 298 297 295 293 292 292 292
58 63 69 71 71 72 72 71 75 79 79 78 80 84 86 87 88 91 94 96 98 99 100 100 102 104 104 102 99 98 98 99 97 95 96 96 95 95 95 93 92 90 88 86 87 90 91 91 90 88 85 83 83 85 84 82 75 67 64 67 62 51 45 37 1 336 339 358 345 326 312 307 307 309 310 310 308 305 303 302 303 303 301 299 299
54 57 64 71 73 74 74 74 74 75 77 79 82 85 90 92 89 88 90 92 94 94 93 94 96 98 97 96 96 94 93 92 92 92 92 92 92 92 92 90 90 91 90 88 86 86 85 84 83 82 79 75 72 70 68 67 63 57 57 62 60 52 47 37 18 15 38 26 344 325 314 307 304 304 305 305 306 307 305 303 306 307 304 303 305
54 58 63 69 72 73 73 75 77 78 78 80 82 85 88 88 86 86 87 89 91 93 92 91 93 94 93 93 93 91 89 89 89 89 87 86 86 88 89 90 90 90 89 87 86 85 84 82 81 80 79 77 74 71 68 66 63 57 54 54 52 48 42 34 28 28 23 351 329 322 318 313 309 308 310 312 312 313 311 307 306 306 306 306 306
48 56 64 71 74 75 73 73 77 80 82 82 81 82 86 88 87 86 85 86 90 94 94 92 90 91 92 94 96 97 97 97 96 93 89 85 84 84 85 86 87 87 85 83 82 80 79 78 77 77 77 75 74 72 69 66 64 61 55 49 43 38 32 28 25 19 5 350 341 332 323 317 313 312 313 314 313 310 308 306 305 305 307 308 305
43 46 54 62 69 72 73 71 72 75 83 89 90 87 87 90 91 91 91 92 93 95 97 96 94 92 93 94 95 96 98 101 101 99 96 94 92 90 87 85 85 84 83 82 80 78 78 77 75 74 72 70 69 69 68 65 61 56 50 44 38 32 27 24 22 17 10 8 5 341 315 310 313 314 313 312 312 311 310 310 311 311 308 305 303
50 51 56 61 65 67 67 67 66 65 68 78 87 88 88 89 90 93 97 99 98 97 97 97 94 93 95 96 95 93 93 93 94 94 95 97 99 97 93 88 84 82 82 82 80 78 76 74 71 70 68 66 63 62 60 57 54 50 45 37 30 26 24 24 25 23 24 28 22 357 323 310 313 315 314 313 316 318 316 315 315 312 308 306 305
57 59 62 63 63 63 64 66 65 63 60 63 70 75 78 79 81 83 87 89 91 92 94 95 95 95 96 96 95 95 95 95 93 90 90 93 97 98 95 89 84 81 81 80 79 77 75 73 72 71 69 67 64 59 55 53 52 49 42 35 30 28 30 32 32 34 42 41 26 4 343 331 327 326 324 323 322 320 315 312 311 309 306 304 303